Zurück zum Katalog

METEOR 1-17 DEB

AktivPO
NORAD 57538·DEBRIS·🇷🇺 Russia

Gestartet Apr 24, 1974 von Plesetsk Cosmodrome

Loading…

Nächste Überflüge (nächste 24 Stunden)

TLE

AktuellSource: Space-Track

Epoche: Sep 13, 2026, 19:40 UTC

1 57538U 74025D   26256.81991489  .00002068  00000-0  85901-3 0  9998
2 57538  81.1944 192.3730 0021538 352.6885   7.3977 14.26051096163364

Verfolge METEOR 1-17 DEB in Echtzeit mit AllMySat

Download on the App Store